Hourly Data Report for October 14, 2016

All times are specified in Local Standard Time (LST). Add 1 hour to adjust for Daylight Saving Time where and when it is observed.

GRISE FIORD CLIMATE
NUNAVUT

76°25'22.040" N
82°54'08.020" W
44.50 m
2402351
71971
NGC

Download Data

Hourly Data (October 2016)
Hourly Data Report for October 14, 2016
Temp Definition
°C
Dew Point Temp Definition
°C
Rel Hum Definition
%
Wind Dir Definition
10's deg

Wind Spd Definition
km/h
Visibility Definition
km
Stn Press Definition
kPa
Hmdx Definition


Wind Chill Definition


Weather Definition


TIME
00:00 -9.2 -12.6 76 5 25   100.80   -18 LegendNANA
01:00 -10.0 -13.8 74 5 24   100.82   -19 LegendNANA
02:00 -9.6 -13.3 74 5 15   100.82   -16 LegendNANA
03:00 -9.7 -14.1 70 5 7   100.85   -14 LegendNANA
04:00 -8.9 -12.4 75 4 8   100.84   -13 LegendNANA
05:00 -9.7 -13.9 71 4 11   100.84   -15 LegendNANA
06:00 -9.9 -13.7 74 5 13   100.86   -16 LegendNANA
07:00 -10.0 -13.3 77 4 21   100.87   -18 LegendNANA
08:00 -8.8 -12.0 78 5 16   100.89   -16 LegendNANA
09:00 -8.8 -11.5 81 6 20   100.87   -16 LegendNANA
10:00 -9.4 -11.7 83 5 26   100.86   -18 LegendNANA
11:00 -9.5 -12.2 80 5 28   100.87   -19 LegendNANA
12:00 -9.3 -12.7 76 5 24   100.86   -18 LegendNANA
13:00 -9.2 -12.9 74 5 19   100.86   -17 LegendNANA
14:00 -10.0 -13.3 76 6 7   100.86   -14 LegendNANA
15:00 -10.7 -14.2 76 8 5   100.85   -14 LegendNANA
16:00 -9.8 -13.0 77 7 6   100.85   -13 LegendNANA
17:00 -10.9 -13.3 82 8 7   100.87   -15 LegendNANA
18:00 -11.8 -14.7 79 9 5   100.88   -15 LegendNANA
19:00 -10.0 -12.9 79 6 4   100.85   -12 LegendNANA
20:00 -10.3 -13.2 79 7 9   100.83   -15 LegendNANA
21:00 -10.2 -14.2 72 6 10   100.80   -15 LegendNANA
22:00 -10.5 -13.9 76 7 4   100.79   -13 LegendNANA
23:00 -10.9 -13.9 79 5 24   100.73   -20 LegendNANA

Notes on Data Quality.

Legend

  • E = Estimated
  • M = Missing
  • NA = Not Available
  • ‡ = Partner data that is not subject to review by the National Climate Archives
Date modified: